GW4106 Weather Reports


time (UTC)temp
C
wind
direction
speed
KPH
gust
KPH
rain 1hr
cm
rain 24hr
cm
rain mn
cm
humidity
%
barometer
mb
20260906083519 23 0.0 0.0 0.00 0.00 0.00 94 1011.2
20260906083019 23 0.0 0.0 0.00 0.00 0.00 93 1011.1
20260906082519 24 0.0 0.0 0.00 0.00 0.00 93 1011.1
20260906082019 24 0.0 0.0 0.00 0.00 0.00 93 1011.0
20260906081519 24 0.0 0.0 0.00 0.00 0.00 93 1011.0
20260906081019 24 0.0 0.0 0.00 0.00 0.00 93 1011.0
20260906080519 24 0.0 0.0 0.00 0.00 0.00 92 1011.0
20260906080019 24 0.0 0.0 0.00 0.00 0.00 92 1011.0
20260906075519 24 0.0 0.0 0.00 0.00 0.00 92 1011.1
20260906075019 24 0.0 0.0 0.00 0.00 0.00 92 1011.1
20260906074519 24 0.0 0.0 0.00 0.00 0.00 92 1011.1
20260906074039 25 0.0 0.0 0.00 0.00 0.00 91 1011.1
20260906073539 25 0.0 0.0 0.00 0.00 0.00 91 1011.2
20260906073059 25 0.0 0.0 0.00 0.00 0.00 90 1011.2
20260906072519 25 0.0 0.0 0.00 0.00 0.00 90 1011.3
20260906072019 25 0.0 0.0 0.00 0.00 0.00 88 1011.4
20260906071519 26 0.0 1.6 0.00 0.00 0.00 87 1011.3
20260906071019 26 225 1.6 4.8 0.00 0.00 0.00 85 1011.3
20260906070519 26 0.0 3.2 0.00 0.00 0.00 85 1011.4
20260906070019 26 0.0 4.8 0.00 0.00 0.00 85 1011.4
20260906065519 26 225 1.6 4.8 0.00 0.00 0.00 84 1011.4
20260906065019 26 0.0 1.6 0.00 0.00 0.00 84 1011.4
20260906064519 26 0.0 3.2 0.00 0.00 0.00 84 1011.5
20260906064019 26 225 1.6 6.4 0.00 0.00 0.00 84 1011.5
20260906063519 26 0.0 3.2 0.00 0.00 0.00 85 1011.5
20260906063019 26 0.0 1.6 0.00 0.00 0.00 84 1011.6
20260906062519 26 203 1.6 4.8 0.00 0.00 0.00 84 1011.6
20260906062019 26 203 1.6 6.4 0.00 0.00 0.00 84 1011.6
20260906061519 26 0.0 1.6 0.00 0.00 0.00 83 1011.6
20260906061019 27 225 1.6 3.2 0.00 0.00 0.00 83 1011.7
20260906060519 27 0.0 1.6 0.00 0.00 0.00 82 1011.8
20260906060019 27 0.0 3.2 0.00 0.00 0.00 82 1011.9
20260906055519 27 225 1.6 6.4 0.00 0.00 0.00 81 1011.9
20260906055018 27 0.0 6.4 0.00 0.00 0.00 81 1012.0
20260906054519 27 180 1.6 6.4 0.00 0.00 0.00 81 1012.0
20260906054019 27 180 1.6 4.8 0.00 0.00 0.00 81 1012.0
20260906053518 27 180 1.6 3.2 0.00 0.00 0.00 81 1011.9
20260906053019 27 0.0 3.2 0.00 0.00 0.00 81 1011.9
20260906052518 27 0.0 4.8 0.00 0.00 0.00 80 1011.9
20260906052019 27 180 1.6 3.2 0.00 0.00 0.00 80 1011.9
20260906051519 27 180 1.6 4.8 0.00 0.00 0.00 79 1011.9
20260906051019 27 180 1.6 3.2 0.00 0.00 0.00 80 1011.8
20260906050518 28 180 1.6 4.8 0.00 0.00 0.00 79 1011.8
20260906050018 28 180 1.6 4.8 0.00 0.00 0.00 79 1011.8
20260906045559 28 0.0 3.2 0.00 0.00 0.00 78 1011.7
20260906045019 28 180 1.6 3.2 0.00 0.00 0.00 77 1011.7
20260906044519 28 180 1.6 4.8 0.00 0.00 0.00 77 1011.6
20260906044019 28 180 1.6 4.8 0.00 0.00 0.00 77 1011.6
20260906043519 28 0.0 1.6 0.00 0.00 0.00 77 1011.6
20260906043039 28 180 1.6 4.8 0.00 0.00 0.00 76 1011.6
20260906042519 29 180 3.2 6.4 0.00 0.00 0.00 76 1011.7
20260906042019 29 180 3.2 6.4 0.00 0.00 0.00 76 1011.7
20260906041519 29 180 3.2 8.0 0.00 0.00 0.00 76 1011.7
20260906041019 29 180 1.6 4.8 0.00 0.00 0.00 76 1011.7
20260906040519 29 203 3.2 6.4 0.00 0.00 0.00 75 1011.8
20260906040019 29 180 4.8 9.7 0.00 0.00 0.00 75 1011.9
20260906035519 29 203 1.6 8.0 0.00 0.00 0.00 76 1012.0
20260906035019 29 203 3.2 6.4 0.00 0.00 0.00 77 1011.9
20260906034539 29 203 3.2 8.0 0.00 0.00 0.00 77 1012.0
20260906034038 29 180 4.8 11.3 0.00 0.00 0.00 79 1012.0
20260906033519 28 225 3.2 9.7 0.00 0.00 0.00 81 1012.0
20260906033019 28 180 4.8 16.1 0.00 0.00 0.00 84 1011.9
20260906032519 27 45 1.6 9.7 0.00 0.00 0.00 86 1011.9
20260906032018 27 0.0 0.0 0.00 0.00 0.00 86 1011.7
20260906031519 27 0.0 0.0 0.00 0.00 0.00 87 1011.7
20260906031019 27 0.0 0.0 0.00 0.00 0.00 87 1011.7
20260906030519 27 0.0 0.0 0.00 0.00 0.00 87 1011.5
20260906030021 27 0.0 0.0 0.00 0.00 0.00 86 1011.6
20260906025519 27 0.0 0.0 0.00 0.00 0.00 87 1011.6
20260906025019 27 0.0 0.0 0.00 0.00 0.00 89 1011.6
20260906024519 27 0.0 0.0 0.00 0.00 0.00 89 1011.5
20260906024018 27 0.0 0.0 0.00 0.00 0.00 88 1011.6
20260906023519 27 0.0 0.0 0.00 0.00 0.00 88 1011.3
20260906023018 28 0.0 0.0 0.00 0.00 0.00 86 1011.3
20260906022518 28 0.0 1.6 0.00 0.00 0.00 85 1011.3
20260906022039 28 0.0 1.6 0.00 0.00 0.00 85 1011.4
20260906021518 28 0.0 0.0 0.00 0.00 0.00 87 1011.3
20260906021018 28 0.0 0.0 0.00 0.00 0.00 87 1011.3
20260906020518 28 0.0 0.0 0.00 0.00 0.00 86 1011.2
20260906020039 28 0.0 0.0 0.00 0.00 0.00 86 1011.2
20260906015518 28 0.0 0.0 0.00 0.00 0.00 86 1011.0
20260906015018 28 0.0 0.0 0.00 0.00 0.00 85 1010.9
20260906014518 28 0.0 0.0 0.00 0.00 0.00 85 1010.7
20260906014038 28 0.0 0.0 0.00 0.00 0.00 85 1010.7
20260906013519 28 0.0 0.0 0.00 0.00 0.00 86 1010.7
20260906013018 28 0.0 0.0 0.00 0.00 0.00 86 1010.6
20260906012518 28 0.0 0.0 0.00 0.00 0.00 86 1010.6
20260906012018 28 0.0 0.0 0.00 0.00 0.00 84 1010.5
20260906011518 28 0.0 0.0 0.00 0.00 0.00 85 1010.4
20260906011018 28 0.0 0.0 0.00 0.00 0.00 86 1010.3
20260906010519 28 0.0 0.0 0.00 0.00 0.00 85 1010.3
20260906010018 28 0.0 0.0 0.00 0.00 0.00 85 1010.2
20260906005518 29 0.0 0.0 0.00 0.00 0.00 84 1010.2
20260906005038 29 0.0 0.0 0.00 0.00 0.00 83 1010.3
20260906004518 29 0.0 0.0 0.00 0.00 0.00 83 1010.2
20260906004018 29 0.0 0.0 0.00 0.00 0.00 82 1010.2
20260906003518 30 0.0 0.0 0.00 0.00 0.00 80 1010.1
20260906003018 30 0.0 0.0 0.00 0.00 0.00 80 1010.1
20260906002538 30 0.0 0.0 0.00 0.00 0.00 79 1010.1
20260906002018 30 0.0 0.0 0.00 0.00 0.00 78 1010.1
20260906001518 31 0.0 0.0 0.00 0.00 0.00 76 1010.1
20260906001038 31 0.0 0.0 0.00 0.00 0.00 75 1010.1
20260906000518 31 0.0 0.0 0.00 0.00 0.00 75 1010.1
20260906000018 32 0.0 0.0 0.00 0.00 0.00 75 1010.0
20260905235518 32 0.0 0.0 0.00 0.00 0.00 70 1010.0
20260905235018 32 0.0 0.0 0.00 0.00 0.00 72 1010.0
20260905234518 32 0.0 0.0 0.00 0.00 0.00 71 1010.0
20260905234018 33 0.0 0.0 0.00 0.00 0.00 65 1010.1
20260905233538 33 0.0 0.0 0.00 0.00 0.00 64 1010.1
20260905233038 33 0.0 0.0 0.00 0.00 0.00 63 1010.1
20260905232519 33 0.0 0.0 0.00 0.00 0.00 63 1010.0
20260905232038 34 0.0 1.6 0.00 0.00 0.00 61 1010.0
20260905231518 34 0.0 1.6 0.00 0.00 0.00 65 1010.1
20260905231018 34 0.0 0.0 0.00 0.00 0.00 65 1010.1
20260905230518 35 0.0 1.6 0.00 0.00 0.00 63 1010.1
20260905230018 35 45 1.6 3.2 0.00 0.00 0.00 61 1010.0
20260905225518 35 0.0 1.6 0.00 0.00 0.00 59 1010.1
20260905225020 35 0.0 0.0 0.00 0.00 0.00 58 1010.0
20260905224520 35 0.0 0.0 0.00 0.00 0.00 60 1010.0
20260905224020 34 0.0 1.6 0.00 0.00 0.00 63 1010.2
20260905223520 34 0.0 4.8 0.00 0.00 0.00 60 1010.0
20260905223019 34 0.0 1.6 0.00 0.00 0.00 59 1010.0
20260905222539 34 0.0 1.6 0.00 0.00 0.00 58 1010.1
20260905222020 35 45 1.6 4.8 0.00 0.00 0.00 57 1010.2
20260905221519 36 113 3.2 6.4 0.00 0.00 0.00 52 1010.3
20260905221020 37 113 4.8 6.4 0.00 0.00 0.00 49 1010.3
20260905220521 37 113 4.8 6.4 0.00 0.00 0.00 50 1010.3
20260905220020 36 113 4.8 9.7 0.00 0.00 0.00 50 1010.3
20260905215519 36 113 6.4 12.9 0.00 0.00 0.00 51 1010.4
20260905215020 36 113 8.0 11.3 0.00 0.00 0.00 51 1010.4
20260905214520 36 113 6.4 14.5 0.00 0.00 0.00 51 1010.3
20260905214020 36 135 4.8 11.3 0.00 0.00 0.00 50 1010.3
20260905213519 36 113 4.8 9.7 0.00 0.00 0.00 49 1010.4
20260905213019 37 113 3.2 6.4 0.00 0.00 0.00 48 1010.5
20260905212519 37 90 6.4 14.5 0.00 0.00 0.00 48 1010.5
20260905212019 37 113 9.7 16.1 0.00 0.00 0.00 48 1010.5
20260905211519 37 90 3.2 11.3 0.00 0.00 0.00 49 1010.5
20260905211019 37 113 1.6 4.8 0.00 0.00 0.00 48 1010.6
20260905210519 37 113 1.6 6.4 0.00 0.00 0.00 51 1010.5
20260905210019 37 180 3.2 11.3 0.00 0.00 0.00 48 1010.5
20260905205519 37 90 4.8 11.3 0.00 0.00 0.00 48 1010.5
20260905205019 37 113 3.2 8.0 0.00 0.00 0.00 48 1010.5
20260905204519 37 113 6.4 12.9 0.00 0.00 0.00 49 1010.7
20260905204039 37 113 1.6 6.4 0.00 0.00 0.00 52 1010.7
20260905203519 37 90 6.4 14.5 0.00 0.00 0.00 50 1010.9
20260905203040 37 113 8.0 14.5 0.00 0.00 0.00 49 1011.0
20260905202519 37 135 4.8 8.0 0.00 0.00 0.00 51 1011.0
20260905202019 37 135 6.4 12.9 0.00 0.00 0.00 52 1011.0
20260905201519 37 158 3.2 8.0 0.00 0.00 0.00 51 1010.9
20260905201019 37 158 3.2 8.0 0.00 0.00 0.00 53 1011.1
20260905200519 37 225 3.2 6.4 0.00 0.00 0.00 52 1011.2
20260905200019 36 113 6.4 12.9 0.00 0.00 0.00 53 1011.3
20260905195519 37 270 3.2 11.3 0.00 0.00 0.00 52 1011.5
20260905195039 36 270 3.2 8.0 0.00 0.00 0.00 51 1011.5
20260905194519 36 158 4.8 9.7 0.00 0.00 0.00 53 1011.6
20260905194019 36 158 3.2 8.0 0.00 0.00 0.00 55 1011.7
20260905193519 36 180 3.2 8.0 0.00 0.00 0.00 56 1011.7
20260905193019 35 158 3.2 4.8 0.00 0.00 0.00 60 1011.9
20260905192519 35 158 4.8 9.7 0.00 0.00 0.00 58 1012.0
20260905192019 35 113 4.8 9.7 0.00 0.00 0.00 57 1012.1
20260905191539 35 113 6.4 11.3 0.00 0.00 0.00 57 1012.1
20260905191039 35 158 6.4 12.9 0.00 0.00 0.00 56 1012.2
20260905190519 35 113 4.8 14.5 0.00 0.00 0.00 54 1012.2
20260905190019 36 113 3.2 6.4 0.00 0.00 0.00 55 1012.3
20260905185519 36 315 3.2 11.3 0.00 0.00 0.00 54 1012.3
20260905185019 36 135 3.2 11.3 0.00 0.00 0.00 53 1012.3
20260905184519 36 113 4.8 11.3 0.00 0.00 0.00 54 1012.4
20260905184039 36 135 4.8 8.0 0.00 0.00 0.00 52 1012.4
20260905183519 36 315 1.6 8.0 0.00 0.00 0.00 56 1012.6
20260905183019 36 315 3.2 6.4 0.00 0.00 0.00 53 1012.7
20260905182519 36 0 3.2 9.7 0.00 0.00 0.00 52 1012.7
20260905182019 36 23 1.6 8.0 0.00 0.00 0.00 56 1012.7
20260905181519 35 23 3.2 6.4 0.00 0.00 0.00 57 1012.6
20260905181019 35 23 1.6 4.8 0.00 0.00 0.00 54 1012.7
20260905180539 36 68 3.2 4.8 0.00 0.00 0.00 53 1012.8
20260905180019 36 90 1.6 6.4 0.00 0.00 0.00 53 1012.8
20260905175518 36 90 1.6 4.8 0.00 0.00 0.00 56 1012.9
20260905175019 35 23 1.6 8.0 0.00 0.00 0.00 57 1013.0
20260905174519 35 90 1.6 6.4 0.00 0.00 0.00 59 1013.0
20260905174019 35 158 3.2 8.0 0.00 0.00 0.00 56 1013.1
20260905173519 36 113 3.2 9.7 0.00 0.00 0.00 54 1013.1
20260905173018 35 113 3.2 9.7 0.00 0.00 0.00 54 1013.0
20260905172518 35 0 3.2 8.0 0.00 0.00 0.00 56 1013.1
20260905172018 36 338 3.2 8.0 0.00 0.00 0.00 57 1013.2
20260905171518 36 315 1.6 3.2 0.00 0.00 0.00 55 1013.3
20260905171038 35 315 3.2 6.4 0.00 0.00 0.00 55 1013.3
20260905170518 35 0 3.2 6.4 0.00 0.00 0.00 57 1013.4
20260905170018 35 0 3.2 9.7 0.00 0.00 0.00 56 1013.5
20260905165539 35 0.0 3.2 0.00 0.00 0.00 58 1013.5
20260905165018 35 113 3.2 6.4 0.00 0.00 0.00 57 1013.6
20260905164539 35 90 4.8 6.4 0.00 0.00 0.00 58 1013.6
20260905164019 35 113 1.6 6.4 0.00 0.00 0.00 60 1013.7
20260905163559 35 90 1.6 4.8 0.00 0.00 0.00 58 1013.8
20260905163018 35 90 4.8 12.9 0.00 0.00 0.00 61 1013.9
20260905162539 34 113 3.2 12.9 0.00 0.00 0.00 62 1013.8
20260905162018 35 113 3.2 8.0 0.00 0.00 0.00 61 1014.0
20260905161518 34 225 3.2 8.0 0.00 0.00 0.00 66 1014.0
20260905161019 33 225 3.2 6.4 0.00 0.00 0.00 64 1014.0
20260905160519 33 225 4.8 8.0 0.00 0.00 0.00 67 1014.2
20260905160018 33 158 3.2 6.4 0.00 0.00 0.00 66 1014.1
20260905155518 33 158 1.6 4.8 0.00 0.00 0.00 71 1014.0
20260905155018 33 0.0 3.2 0.00 0.00 0.00 67 1014.1
20260905154518 32 135 1.6 3.2 0.00 0.00 0.00 68 1014.2
20260905154018 32 158 1.6 4.8 0.00 0.00 0.00 69 1014.2
20260905153518 32 158 1.6 3.2 0.00 0.00 0.00 70 1014.2
20260905153018 32 158 1.6 3.2 0.00 0.00 0.00 69 1014.2
20260905152518 32 158 3.2 8.0 0.00 0.00 0.00 72 1014.2
20260905152038 32 270 1.6 3.2 0.00 0.00 0.00 72 1014.2
20260905151518 31 293 3.2 4.8 0.00 0.00 0.00 73 1014.1
20260905151018 31 293 1.6 3.2 0.00 0.00 0.00 73 1014.1
20260905150518 31 0.0 1.6 0.00 0.00 0.00 72 1014.2
20260905150018 31 293 1.6 3.2 0.00 0.00 0.00 73 1014.2
20260905145518 31 0.0 1.6 0.00 0.00 0.00 74 1014.2
20260905145018 30 0.0 1.6 0.00 0.00 0.00 75 1014.2
20260905144618 30 293 1.6 3.2 0.00 0.00 0.00 74 1014.3
20260905144018 30 293 1.6 4.8 0.00 0.00 0.00 74 1014.3
20260905143518 30 293 1.6 6.4 0.00 0.00 0.00 74 1014.3
20260905143019 30 270 1.6 3.2 0.00 0.00 0.00 75 1014.3
20260905142518 30 0.0 3.2 0.00 0.00 0.00 76 1014.4
20260905142038 30 270 1.6 3.2 0.00 0.00 0.00 79 1014.3
20260905141518 29 270 1.6 4.8 0.00 0.00 0.00 79 1014.2
20260905141018 29 270 1.6 4.8 0.00 0.00 0.00 80 1014.3
20260905140518 29 270 1.6 4.8 0.00 0.00 0.00 82 1014.2
20260905140038 28 270 1.6 4.8 0.00 0.00 0.00 83 1014.2
20260905135518 28 270 1.6 3.2 0.00 0.00 0.00 84 1014.1
20260905135018 28 270 1.6 4.8 0.00 0.00 0.00 84 1014.1
20260905134518 27 270 1.6 3.2 0.00 0.00 0.00 84 1014.1
20260905134018 27 270 1.6 4.8 0.00 0.00 0.00 85 1014.1
20260905133518 27 270 1.6 4.8 0.00 0.00 0.00 86 1014.1
20260905133018 27 0.0 3.2 0.00 0.00 0.00 87 1014.1
20260905132518 26 270 1.6 3.2 0.00 0.00 0.00 87 1014.1
20260905132018 26 0.0 1.6 0.00 0.00 0.00 89 1014.1
20260905131518 26 270 1.6 1.6 0.00 0.00 0.00 90 1014.1
20260905131018 26 0.0 3.2 0.00 0.00 0.00 91 1014.1
20260905130518 26 270 1.6 3.2 0.00 0.00 0.00 92 1014.2
20260905130018 25 0.0 1.6 0.00 0.00 0.00 93 1014.2
20260905125518 25 0.0 0.0 0.00 0.00 0.00 94 1014.1
20260905125020 25 0.0 0.0 0.00 0.00 0.00 94 1014.1
20260905124520 24 0.0 1.6 0.00 0.00 0.00 95 1014.1
20260905124020 24 270 1.6 3.2 0.00 0.00 0.00 95 1014.0
20260905123520 24 0.0 0.0 0.00 0.00 0.00 95 1014.0
20260905123020 23 0.0 1.6 0.00 0.00 0.00 96 1014.0
20260905122520 23 0.0 0.0 0.00 0.00 0.00 97 1013.9
20260905122020 23 0.0 0.0 0.00 0.00 0.00 96 1013.9
20260905121520 23 0.0 1.6 0.00 0.00 0.00 96 1013.9
20260905120519 23 0.0 0.0 0.00 0.00 0.00 97 1013.9
20260905120020 22 0.0 0.0 0.00 0.00 0.00 97 1013.9
20260905115520 22 0.0 0.0 0.00 0.00 0.00 96 1013.9
20260905115019 22 0.0 0.0 0.00 0.00 0.00 96 1013.8
20260905114519 23 0.0 1.6 0.00 0.00 0.00 96 1013.8
20260905114019 23 0.0 1.6 0.00 0.00 0.00 96 1013.7
20260905113519 22 0.0 0.0 0.00 0.00 0.00 96 1013.6
20260905113019 22 0.0 0.0 0.00 0.00 0.00 96 1013.5
20260905112539 22 0.0 0.0 0.00 0.00 0.00 96 1013.5
20260905112019 23 0.0 0.0 0.00 0.00 0.00 96 1013.6
20260905111519 23 0.0 0.0 0.00 0.00 0.00 96 1013.6
20260905111019 23 0.0 1.6 0.00 0.00 0.00 96 1013.6
20260905110519 23 0.0 0.0 0.00 0.00 0.00 96 1013.6
20260905110019 23 0.0 0.0 0.00 0.00 0.00 96 1013.5
20260905105519 23 0.0 0.0 0.00 0.00 0.00 96 1013.4
20260905105019 23 0.0 0.0 0.00 0.00 0.00 96 1013.5
20260905104520 23 0.0 0.0 0.00 0.00 0.00 96 1013.5
20260905104019 23 0.0 0.0 0.00 0.00 0.00 96 1013.4
20260905103519 23 0.0 0.0 0.00 0.00 0.00 96 1013.4
20260905103019 23 0.0 3.2 0.00 0.00 0.00 96 1013.5
20260905102519 23 0.0 1.6 0.00 0.00 0.00 96 1013.4
20260905102039 23 0.0 0.0 0.00 0.00 0.00 96 1013.4
20260905101519 23 0.0 0.0 0.00 0.00 0.00 96 1013.3
20260905101039 23 0.0 0.0 0.00 0.00 0.00 96 1013.4
20260905100520 23 0.0 0.0 0.00 0.00 0.00 96 1013.3
20260905100019 23 0.0 0.0 0.00 0.00 0.00 95 1013.3
20260905095519 23 0.0 0.0 0.00 0.00 0.00 95 1013.3
20260905095019 23 0.0 0.0 0.00 0.00 0.00 95 1013.2
20260905094519 23 0.0 0.0 0.00 0.00 0.00 95 1013.2
20260905094019 23 0.0 0.0 0.00 0.00 0.00 95 1013.3
20260905093519 23 0.0 0.0 0.00 0.00 0.00 95 1013.4
20260905093019 23 0.0 0.0 0.00 0.00 0.00 95 1013.3
20260905092519 23 0.0 0.0 0.00 0.00 0.00 95 1013.2
20260905092019 23 0.0 0.0 0.00 0.00 0.00 95 1013.1
20260905091519 23 0.0 1.6 0.00 0.00 0.00 95 1013.2
20260905091019 23 0.0 0.0 0.00 0.00 0.00 95 1013.2
20260905090539 23 0.0 1.6 0.00 0.00 0.00 95 1013.2
20260905090019 23 0.0 1.6 0.00 0.00 0.00 95 1013.2
20260905085519 23 0.0 0.0 0.00 0.00 0.00 95 1013.3
20260905085019 23 0.0 0.0 0.00 0.00 0.00 95 1013.2
20260905084519 23 0.0 0.0 0.00 0.00 0.00 95 1013.2
20260905084019 23 0.0 0.0 0.00 0.00 0.00 94 1013.2